Regional Weather Roundup
Issued by NWS

Home | Current Version | Previous Version | Text Only | Print | Product List | Glossary On
Versions: 1 2 3 4 5 6 7 8 9 10 11 12 13 14 15 16 17 18 19 20 21 22 23 24 25 26 27 28 29 30 31 32 33 34 35 36 37 38 39 40 41 42 43 44 45 46 47 48 49 50
000
ASUS43 KBIS 301310
RWRND

NORTH DAKOTA REGIONAL WEATHER ROUNDUP
NATIONAL WEATHER SERVICE BISMARCK ND
800 AM CDT SAT APR 30 2016

NOTE: "FAIR" INDICATES FEW OR NO CLOUDS BELOW 12,000 FEET WITH NO
SIGNIFICANT WEATHER AND/OR OBSTRUCTIONS TO VISIBILITY.


NDZ001>003-009>011-017-301400-
NORTHWEST NORTH DAKOTA

CITY           SKY/WX    TMP DP  RH WIND       PRES   REMARKS
WILLISTON      SUNNY     43  31  62 N6        30.25R
MINOT          SUNNY     42  27  55 CALM      30.26R
MINOT AFB      SUNNY     39  28  63 N6        30.27R
$$

NDZ018>021-031>035-040>046-301400-
SOUTHWEST NORTH DAKOTA

CITY           SKY/WX    TMP DP  RH WIND       PRES   REMARKS
BISMARCK       CLOUDY    43  34  70 NE15      30.17R
DICKINSON      MOSUNNY   35  29  78 N8        30.15R
GARRISON         N/A     43  32  65 NE8       30.22R
HETTINGER ARPT CLOUDY    39  32  76 NE12      30.14R
$$

NDZ004>008-012>016-024-026-027-054-301400-
NORTHEAST NORTH DAKOTA

CITY           SKY/WX    TMP DP  RH WIND       PRES   REMARKS
GRAND FORKS    MOSUNNY   44  34  67 E9        30.28R
GRND FRKS AFB  SUNNY     40  32  73 E6        30.29R
DEVILS LAKE    SUNNY     43  33  68 E10       30.27R
$$

NDZ022-023-025-028>030-036>039-047>053-301400-
SOUTHEAST NORTH DAKOTA

CITY           SKY/WX    TMP DP  RH WIND       PRES   REMARKS
FARGO          MOSUNNY   45  32  60 NE13      30.20S
JAMESTOWN      CLOUDY    44  33  65 E14       30.18S
$$





USA.gov is the U.S. government's official web portal to all federal, state and local government web resources and services.